Time,TemperatureF,DewpointF,PressureIn,WindDirection,WindDirectionDegrees,WindSpeedMPH,WindSpeedGustMPH,Humidity,HourlyPrecipIn,Conditions,Clouds,dailyrainin,SoftwareType,DateUTC
2013-04-20 00:03:00,41.0,32.0,29.83,West,279,3.0,-999.0,70,-99.99,,,-99.99,,2013-04-20 04:03:00,
2013-04-20 00:12:00,41.0,32.0,29.83,West,279,3.0,-999.0,70,-99.99,,,-99.99,,2013-04-20 04:12:00,
2013-04-20 00:23:00,41.0,32.0,29.83,West,271,2.0,-999.0,71,-99.99,,,-99.99,,2013-04-20 04:23:00,
2013-04-20 00:33:00,41.0,32.0,29.83,SSW,194,4.0,-999.0,71,-99.99,,,-99.99,,2013-04-20 04:33:00,
2013-04-20 00:42:00,41.0,32.0,29.83,SSW,194,4.0,-999.0,71,-99.99,,,-99.99,,2013-04-20 04:42:00,
2013-04-20 00:53:00,41.0,33.0,29.83,West,268,4.0,-999.0,72,-99.99,,,-99.99,,2013-04-20 04:53:00,
2013-04-20 01:02:00,40.0,34.0,29.84,West,275,2.0,-999.0,78,-99.99,,,-99.99,,2013-04-20 05:02:00,
2013-04-20 01:12:00,40.0,34.0,29.84,West,275,2.0,-999.0,78,-99.99,,,-99.99,,2013-04-20 05:12:00,
2013-04-20 01:22:00,38.0,33.0,29.85,SW,232,2.0,-999.0,81,-99.99,,,-99.99,,2013-04-20 05:22:00,
2013-04-20 01:32:00,38.0,33.0,29.85,WSW,246,3.0,-999.0,83,-99.99,,,-99.99,,2013-04-20 05:32:00,
2013-04-20 01:43:00,38.0,33.0,29.85,WSW,246,3.0,-999.0,83,-99.99,,,-99.99,,2013-04-20 05:43:00,
2013-04-20 01:52:00,38.0,34.0,29.85,SSW,203,1.0,-999.0,84,-99.99,,,-99.99,,2013-04-20 05:52:00,
2013-04-20 02:02:00,38.0,34.0,29.85,SW,221,1.0,-999.0,84,-99.99,,,-99.99,,2013-04-20 06:02:00,
2013-04-20 02:12:00,38.0,34.0,29.85,SW,221,1.0,-999.0,84,-99.99,,,-99.99,,2013-04-20 06:12:00,
2013-04-20 02:21:00,38.0,33.0,29.85,WNW,299,2.0,-999.0,82,-99.99,,,-99.99,,2013-04-20 06:21:00,
2013-04-20 02:32:00,38.0,32.0,29.85,WNW,303,3.0,-999.0,80,-99.99,,,-99.99,,2013-04-20 06:32:00,
2013-04-20 02:42:00,38.0,32.0,29.85,WNW,303,3.0,-999.0,80,-99.99,,,-99.99,,2013-04-20 06:42:00,
2013-04-20 02:52:00,38.0,32.0,29.85,SW,234,3.0,-999.0,78,-99.99,,,-99.99,,2013-04-20 06:52:00,
2013-04-20 03:01:00,39.0,33.0,29.85,SW,221,3.0,-999.0,78,-99.99,,,-99.99,,2013-04-20 07:01:00,
2013-04-20 03:11:00,39.0,33.0,29.85,SW,221,3.0,-999.0,78,-99.99,,,-99.99,,2013-04-20 07:11:00,
2013-04-20 03:21:00,39.0,32.0,29.86,West,265,4.0,-999.0,77,-99.99,,,-99.99,,2013-04-20 07:21:00,
2013-04-20 03:32:00,38.0,31.0,29.86,West,261,3.0,-999.0,77,-99.99,,,-99.99,,2013-04-20 07:32:00,
2013-04-20 03:42:00,38.0,32.0,29.86,West,267,2.0,-999.0,79,-99.99,,,-99.99,,2013-04-20 07:42:00,
2013-04-20 03:52:00,38.0,32.0,29.86,West,267,2.0,-999.0,79,-99.99,,,-99.99,,2013-04-20 07:52:00,
2013-04-20 04:02:00,38.0,32.0,29.87,West,263,3.0,-999.0,79,-99.99,,,-99.99,,2013-04-20 08:02:00,
2013-04-20 04:11:00,38.0,32.0,29.87,West,263,3.0,-999.0,79,-99.99,,,-99.99,,2013-04-20 08:11:00,
2013-04-20 04:21:00,38.0,32.0,29.87,WSW,253,3.0,-999.0,78,-99.99,,,-99.99,,2013-04-20 08:21:00,
2013-04-20 04:32:00,38.0,31.0,29.88,WSW,256,3.0,-999.0,77,-99.99,,,-99.99,,2013-04-20 08:32:00,
2013-04-20 04:42:00,38.0,31.0,29.88,WSW,256,3.0,-999.0,77,-99.99,,,-99.99,,2013-04-20 08:42:00,
2013-04-20 04:52:00,38.0,31.0,29.88,WNW,290,4.0,-999.0,76,-99.99,,,-99.99,,2013-04-20 08:52:00,
2013-04-20 05:02:00,38.0,31.0,29.89,WNW,296,3.0,-999.0,76,-99.99,,,-99.99,,2013-04-20 09:02:00,
2013-04-20 05:12:00,38.0,31.0,29.89,WNW,296,3.0,-999.0,76,-99.99,,,-99.99,,2013-04-20 09:12:00,
2013-04-20 05:21:00,38.0,31.0,29.89,WSW,242,4.0,-999.0,75,-99.99,,,-99.99,,2013-04-20 09:21:00,
2013-04-20 05:33:00,38.0,31.0,29.90,WSW,252,2.0,-999.0,76,-99.99,,,-99.99,,2013-04-20 09:33:00,
2013-04-20 05:43:00,38.0,31.0,29.90,WSW,252,2.0,-999.0,76,-99.99,,,-99.99,,2013-04-20 09:43:00,
2013-04-20 05:53:00,38.0,31.0,29.91,West,262,2.0,-999.0,75,-99.99,,,-99.99,,2013-04-20 09:53:00,
2013-04-20 06:03:00,38.0,31.0,29.91,WNW,294,3.0,-999.0,75,-99.99,,,-99.99,,2013-04-20 10:03:00,
2013-04-20 06:13:00,38.0,31.0,29.91,WNW,294,3.0,-999.0,75,-99.99,,,-99.99,,2013-04-20 10:13:00,
2013-04-20 06:23:00,38.0,30.0,29.92,West,268,3.0,-999.0,73,-99.99,,,-99.99,,2013-04-20 10:23:00,
2013-04-20 06:33:00,38.0,30.0,29.92,WSW,241,3.0,-999.0,73,-99.99,,,-99.99,,2013-04-20 10:33:00,
2013-04-20 06:42:00,38.0,30.0,29.92,WSW,241,3.0,-999.0,73,-99.99,,,-99.99,,2013-04-20 10:42:00,
2013-04-20 06:53:00,37.0,29.0,29.93,SW,223,2.0,-999.0,73,-99.99,,,-99.99,,2013-04-20 10:53:00,
2013-04-20 07:02:00,37.0,29.0,29.94,SSW,194,2.0,-999.0,74,-99.99,,,-99.99,,2013-04-20 11:02:00,
2013-04-20 07:12:00,37.0,30.0,29.95,WSW,248,2.0,-999.0,75,-99.99,,,-99.99,,2013-04-20 11:12:00,
2013-04-20 07:23:00,37.0,30.0,29.95,WSW,248,2.0,-999.0,75,-99.99,,,-99.99,,2013-04-20 11:23:00,
2013-04-20 07:32:00,37.0,30.0,29.96,SW,229,3.0,-999.0,75,-99.99,,,-99.99,,2013-04-20 11:32:00,
2013-04-20 07:42:00,37.0,30.0,29.96,SW,229,3.0,-999.0,75,-99.99,,,-99.99,,2013-04-20 11:42:00,
2013-04-20 07:53:00,37.0,30.0,29.96,West,273,2.0,-999.0,75,-99.99,,,-99.99,,2013-04-20 11:53:00,
2013-04-20 08:02:00,38.0,30.0,29.97,West,271,2.0,-999.0,74,-99.99,,,-99.99,,2013-04-20 12:02:00,
2013-04-20 08:11:00,38.0,30.0,29.97,West,271,2.0,-999.0,74,-99.99,,,-99.99,,2013-04-20 12:11:00,
2013-04-20 08:22:00,38.0,31.0,29.98,West,262,2.0,-999.0,75,-99.99,,,-99.99,,2013-04-20 12:22:00,
2013-04-20 08:32:00,37.0,30.0,29.99,West,262,3.0,-999.0,75,-99.99,,,-99.99,,2013-04-20 12:32:00,
2013-04-20 08:42:00,37.0,30.0,29.99,West,262,3.0,-999.0,75,-99.99,,,-99.99,,2013-04-20 12:42:00,
2013-04-20 08:52:00,37.0,31.0,30.01,WSW,257,3.0,-999.0,79,-99.99,,,-99.99,,2013-04-20 12:52:00,
2013-04-20 09:02:00,35.0,30.0,30.01,WNW,284,2.0,-999.0,83,-99.99,,,-99.99,,2013-04-20 13:02:00,
2013-04-20 09:11:00,35.0,30.0,30.02,West,259,2.0,-999.0,82,-99.99,,,-99.99,,2013-04-20 13:11:00,
2013-04-20 09:21:00,35.0,30.0,30.02,West,259,2.0,-999.0,82,-99.99,,,-99.99,,2013-04-20 13:21:00,
2013-04-20 09:32:00,36.0,31.0,30.03,WNW,291,2.0,-999.0,81,-99.99,,,-99.99,,2013-04-20 13:32:00,
2013-04-20 09:42:00,37.0,31.0,30.04,WSW,254,3.0,-999.0,79,-99.99,,,-99.99,,2013-04-20 13:42:00,
2013-04-20 09:52:00,37.0,31.0,30.04,WSW,254,3.0,-999.0,79,-99.99,,,-99.99,,2013-04-20 13:52:00,
2013-04-20 10:02:00,37.0,31.0,30.05,WSW,248,2.0,-999.0,78,-99.99,,,-99.99,,2013-04-20 14:02:00,
2013-04-20 10:11:00,37.0,31.0,30.05,WSW,248,2.0,-999.0,78,-99.99,,,-99.99,,2013-04-20 14:11:00,
2013-04-20 10:21:00,37.0,31.0,30.06,WSW,255,2.0,-999.0,79,-99.99,,,-99.99,,2013-04-20 14:21:00,
2013-04-20 10:32:00,37.0,30.0,30.07,West,267,2.0,-999.0,77,-99.99,,,-99.99,,2013-04-20 14:32:00,
2013-04-20 10:42:00,37.0,30.0,30.07,West,267,2.0,-999.0,77,-99.99,,,-99.99,,2013-04-20 14:42:00,
2013-04-20 10:52:00,38.0,30.0,30.08,West,261,3.0,-999.0,74,-99.99,,,-99.99,,2013-04-20 14:52:00,
2013-04-20 11:01:00,38.0,30.0,30.10,West,270,3.0,-999.0,73,-99.99,,,-99.99,,2013-04-20 15:01:00,
2013-04-20 11:12:00,38.0,30.0,30.10,West,270,3.0,-999.0,73,-99.99,,,-99.99,,2013-04-20 15:12:00,
2013-04-20 11:21:00,37.0,29.0,30.11,West,270,3.0,-999.0,73,-99.99,,,-99.99,,2013-04-20 15:21:00,
2013-04-20 11:33:00,37.0,28.0,30.12,NW,306,3.0,-999.0,70,-99.99,,,-99.99,,2013-04-20 15:33:00,
2013-04-20 11:43:00,38.0,28.0,30.13,West,261,3.0,-999.0,68,-99.99,,,-99.99,,2013-04-20 15:43:00,
2013-04-20 11:53:00,38.0,28.0,30.13,West,261,3.0,-999.0,68,-99.99,,,-99.99,,2013-04-20 15:53:00,
2013-04-20 12:03:00,38.0,28.0,30.14,WSW,252,4.0,-999.0,68,-99.99,,,-99.99,,2013-04-20 16:03:00,
2013-04-20 12:12:00,38.0,28.0,30.15,NNW,334,4.0,-999.0,67,-99.99,,,-99.99,,2013-04-20 16:12:00,
2013-04-20 12:23:00,38.0,28.0,30.15,NNW,334,4.0,-999.0,67,-99.99,,,-99.99,,2013-04-20 16:23:00,
2013-04-20 12:33:00,38.0,28.0,30.15,WNW,295,3.0,-999.0,68,-99.99,,,-99.99,,2013-04-20 16:33:00,
2013-04-20 12:42:00,38.0,28.0,30.16,NNW,330,3.0,-999.0,67,-99.99,,,-99.99,,2013-04-20 16:42:00,
2013-04-20 12:53:00,38.0,28.0,30.16,NNW,330,3.0,-999.0,67,-99.99,,,-99.99,,2013-04-20 16:53:00,
2013-04-20 13:02:00,39.0,29.0,30.16,NW,318,3.0,-999.0,68,-99.99,,,-99.99,,2013-04-20 17:02:00,
2013-04-20 13:12:00,39.0,29.0,30.17,WNW,288,3.0,-999.0,68,-99.99,,,-99.99,,2013-04-20 17:12:00,
2013-04-20 13:23:00,39.0,29.0,30.17,WNW,288,3.0,-999.0,68,-99.99,,,-99.99,,2013-04-20 17:23:00,
2013-04-20 13:33:00,39.0,29.0,30.17,WNW,288,4.0,-999.0,67,-99.99,,,-99.99,,2013-04-20 17:33:00,
2013-04-20 13:42:00,39.0,29.0,30.17,WNW,288,4.0,-999.0,67,-99.99,,,-99.99,,2013-04-20 17:42:00,
2013-04-20 13:52:00,39.0,29.0,30.17,WSW,247,3.0,-999.0,67,-99.99,,,-99.99,,2013-04-20 17:52:00,
2013-04-20 14:02:00,40.0,30.0,30.18,West,275,3.0,-999.0,67,-99.99,,,-99.99,,2013-04-20 18:02:00,
2013-04-20 14:12:00,40.0,30.0,30.18,NW,311,4.0,-999.0,68,-99.99,,,-99.99,,2013-04-20 18:12:00,
2013-04-20 14:22:00,40.0,30.0,30.18,NW,311,4.0,-999.0,68,-99.99,,,-99.99,,2013-04-20 18:22:00,
2013-04-20 14:32:00,41.0,31.0,30.19,WSW,246,3.0,-999.0,66,-99.99,,,-99.99,,2013-04-20 18:32:00,
2013-04-20 14:42:00,41.0,31.0,30.19,WSW,246,3.0,-999.0,66,-99.99,,,-99.99,,2013-04-20 18:42:00,
2013-04-20 14:52:00,41.0,31.0,30.20,WNW,298,3.0,-999.0,67,-99.99,,,-99.99,,2013-04-20 18:52:00,
2013-04-20 15:02:00,41.0,31.0,30.20,WNW,292,3.0,-999.0,67,-99.99,,,-99.99,,2013-04-20 19:02:00,
2013-04-20 15:11:00,41.0,31.0,30.21,WNW,299,3.0,-999.0,66,-99.99,,,-99.99,,2013-04-20 19:11:00,
2013-04-20 15:21:00,41.0,31.0,30.21,WNW,299,3.0,-999.0,66,-99.99,,,-99.99,,2013-04-20 19:21:00,
2013-04-20 15:32:00,41.0,30.0,30.21,NW,325,3.0,-999.0,64,-99.99,,,-99.99,,2013-04-20 19:32:00,
2013-04-20 15:42:00,42.0,31.0,30.22,NW,315,3.0,-999.0,64,-99.99,,,-99.99,,2013-04-20 19:42:00,
2013-04-20 15:52:00,42.0,31.0,30.22,NW,315,3.0,-999.0,64,-99.99,,,-99.99,,2013-04-20 19:52:00,
2013-04-20 16:02:00,42.0,31.0,30.23,WNW,300,3.0,-999.0,64,-99.99,,,-99.99,,2013-04-20 20:02:00,
2013-04-20 16:12:00,42.0,30.0,30.23,NW,317,3.0,-999.0,63,-99.99,,,-99.99,,2013-04-20 20:12:00,
2013-04-20 16:22:00,42.0,30.0,30.23,NW,317,3.0,-999.0,63,-99.99,,,-99.99,,2013-04-20 20:22:00,
2013-04-20 16:32:00,42.0,30.0,30.24,WNW,299,3.0,-999.0,62,-99.99,,,-99.99,,2013-04-20 20:32:00,
2013-04-20 16:42:00,42.0,30.0,30.24,WNW,299,3.0,-999.0,62,-99.99,,,-99.99,,2013-04-20 20:42:00,
2013-04-20 16:52:00,42.0,30.0,30.24,WNW,286,4.0,-999.0,61,-99.99,,,-99.99,,2013-04-20 20:52:00,
2013-04-20 17:01:00,42.0,30.0,30.25,WNW,303,3.0,-999.0,63,-99.99,,,-99.99,,2013-04-20 21:01:00,
2013-04-20 17:12:00,42.0,30.0,30.26,West,281,3.0,-999.0,63,-99.99,,,-99.99,,2013-04-20 21:12:00,
2013-04-20 17:22:00,42.0,30.0,30.26,West,281,3.0,-999.0,63,-99.99,,,-99.99,,2013-04-20 21:22:00,
2013-04-20 17:33:00,42.0,30.0,30.26,West,279,3.0,-999.0,63,-99.99,,,-99.99,,2013-04-20 21:33:00,
2013-04-20 17:43:00,42.0,30.0,30.26,West,279,3.0,-999.0,63,-99.99,,,-99.99,,2013-04-20 21:43:00,
2013-04-20 17:53:00,42.0,30.0,30.27,WNW,292,3.0,-999.0,62,-99.99,,,-99.99,,2013-04-20 21:53:00,
2013-04-20 18:03:00,42.0,30.0,30.28,WNW,294,2.0,-999.0,63,-99.99,,,-99.99,,2013-04-20 22:03:00,
2013-04-20 18:12:00,42.0,30.0,30.28,WNW,302,2.0,-999.0,61,-99.99,,,-99.99,,2013-04-20 22:12:00,
2013-04-20 18:23:00,42.0,30.0,30.28,WNW,302,2.0,-999.0,61,-99.99,,,-99.99,,2013-04-20 22:23:00,
2013-04-20 18:32:00,42.0,30.0,30.29,West,281,1.0,-999.0,63,-99.99,,,-99.99,,2013-04-20 22:32:00,
2013-04-20 18:42:00,42.0,30.0,30.29,West,281,1.0,-999.0,63,-99.99,,,-99.99,,2013-04-20 22:42:00,
2013-04-20 18:53:00,41.0,29.0,30.29,NW,304,2.0,-999.0,63,-99.99,,,-99.99,,2013-04-20 22:53:00,
2013-04-20 19:02:00,41.0,29.0,30.29,West,275,1.0,-999.0,63,-99.99,,,-99.99,,2013-04-20 23:02:00,
2013-04-20 19:12:00,41.0,29.0,30.29,West,275,1.0,-999.0,63,-99.99,,,-99.99,,2013-04-20 23:12:00,
2013-04-20 19:22:00,41.0,28.0,30.30,West,263,2.0,-999.0,60,-99.99,,,-99.99,,2013-04-20 23:22:00,
2013-04-20 19:32:00,40.0,28.0,30.30,NNW,331,2.0,-999.0,63,-99.99,,,-99.99,,2013-04-20 23:32:00,
2013-04-20 19:42:00,40.0,28.0,30.30,NNW,331,2.0,-999.0,63,-99.99,,,-99.99,,2013-04-20 23:42:00,
2013-04-20 19:53:00,40.0,29.0,30.31,NW,309,2.0,-999.0,64,-99.99,,,-99.99,,2013-04-20 23:53:00,
2013-04-20 20:01:00,40.0,29.0,30.31,NW,312,2.0,-999.0,64,-99.99,,,-99.99,,2013-04-21 00:01:00,
2013-04-20 20:12:00,40.0,29.0,30.31,NW,312,2.0,-999.0,64,-99.99,,,-99.99,,2013-04-21 00:12:00,
2013-04-20 20:22:00,39.0,27.0,30.32,WNW,294,1.0,-999.0,63,-99.99,,,-99.99,,2013-04-21 00:22:00,
2013-04-20 20:32:00,39.0,28.0,30.32,WNW,290,1.0,-999.0,64,-99.99,,,-99.99,,2013-04-21 00:32:00,
2013-04-20 20:42:00,39.0,28.0,30.32,WNW,290,1.0,-999.0,64,-99.99,,,-99.99,,2013-04-21 00:42:00,
2013-04-20 20:52:00,39.0,28.0,30.33,WNW,303,0.0,-999.0,64,-99.99,,,-99.99,,2013-04-21 00:52:00,
2013-04-20 21:01:00,39.0,28.0,30.34,WNW,287,0.0,-999.0,65,-99.99,,,-99.99,,2013-04-21 01:01:00,
2013-04-20 21:12:00,39.0,28.0,30.34,WNW,287,0.0,-999.0,65,-99.99,,,-99.99,,2013-04-21 01:12:00,
2013-04-20 21:21:00,39.0,28.0,30.35,WNW,285,1.0,-999.0,65,-99.99,,,-99.99,,2013-04-21 01:21:00,
2013-04-20 21:32:00,39.0,28.0,30.35,WNW,292,0.0,-999.0,64,-99.99,,,-99.99,,2013-04-21 01:32:00,
2013-04-20 21:42:00,39.0,28.0,30.35,WNW,292,0.0,-999.0,64,-99.99,,,-99.99,,2013-04-21 01:42:00,
2013-04-20 21:52:00,39.0,28.0,30.36,West,269,1.0,-999.0,64,-99.99,,,-99.99,,2013-04-21 01:52:00,
2013-04-20 22:02:00,39.0,27.0,30.37,NW,306,1.0,-999.0,63,-99.99,,,-99.99,,2013-04-21 02:02:00,
2013-04-20 22:11:00,39.0,27.0,30.37,NW,306,1.0,-999.0,63,-99.99,,,-99.99,,2013-04-21 02:11:00,
2013-04-20 22:22:00,39.0,29.0,30.38,NE,44,1.0,-999.0,67,-99.99,,,-99.99,,2013-04-21 02:22:00,
2013-04-20 22:32:00,38.0,28.0,30.38,ENE,66,0.0,-999.0,66,-99.99,,,-99.99,,2013-04-21 02:32:00,
2013-04-20 22:42:00,38.0,28.0,30.38,ENE,66,0.0,-999.0,66,-99.99,,,-99.99,,2013-04-21 02:42:00,
2013-04-20 22:52:00,38.0,28.0,30.38,NNE,19,0.0,-999.0,66,-99.99,,,-99.99,,2013-04-21 02:52:00,
2013-04-20 23:01:00,38.0,28.0,30.39,NE,46,0.0,-999.0,66,-99.99,,,-99.99,,2013-04-21 03:01:00,
2013-04-20 23:11:00,38.0,28.0,30.39,NE,46,0.0,-999.0,66,-99.99,,,-99.99,,2013-04-21 03:11:00,
2013-04-20 23:22:00,38.0,28.0,30.40,NNE,33,0.0,-999.0,66,-99.99,,,-99.99,,2013-04-21 03:22:00,
2013-04-20 23:33:00,38.0,28.0,30.40,NNE,33,0.0,-999.0,66,-99.99,,,-99.99,,2013-04-21 03:33:00,
2013-04-20 23:42:00,38.0,28.0,30.40,NNE,33,0.0,-999.0,66,-99.99,,,-99.99,,2013-04-21 03:42:00,
2013-04-20 23:53:00,38.0,28.0,30.40,NNE,33,0.0,-999.0,66,-99.99,,,-99.99,,2013-04-21 03:53:00,